Regional Weather Roundup
Issued by NWS Grand Forks, ND

Home | Current Version | Previous Version | Graphics & Text | Print | Product List | Glossary On
Versions: 1 2 3 4 5 6 7 8 9 10 11 12 13 14 15 16 17 18 19 20 21 22 23 24 25 26 27 28 29 30 31 32 33 34 35 36 37 38 39 40 41 42 43 44 45 46 47 48 49 50
000
ASUS43 KFGF 300310
RWRFGF
PRAIRIE TO PINES  WEATHER ROUNDUP
NATIONAL WEATHER SERVICE EASTERN NORTH DAKOTA/GRAND FORKS ND
1000 PM CDT MON SEP 29 2014

 **SATELLITE DATA USED TO AUGMENT SKY COVER AT AUTOMATED STATIONS**
 *****  WEATHER ACROSS EASTERN NORTH DAKOTA  *****

CITY           SKY/WX    TMP DP  RH WIND       PRES   REMARKS
GRAND FORKS    CLEAR     50  45  83 E9        30.07F
GRAND FRKS AFB PTCLDY    47  47  99 E8        30.08F
GRAND FRKS NWS   N/A     48 N/A N/A E5          N/A
DEVILS LAKE    PTCLDY    48  41  76 E7        30.03F
FARGO          CLEAR     53  45  74 SE10      30.07F
WAHPETON ARPT  PTCLDY    48  43  81 E6        30.07F
$$

 ***** WEATHER ACROSS CENTRAL AND WESTERN NORTH DAKOTA  *****

CITY           SKY/WX    TMP DP  RH WIND       PRES   REMARKS
BISMARCK       CLOUDY    55  48  77 E10       29.98F
MINOT          CLOUDY    51  45  79 E12       29.98F
JAMESTOWN      CLEAR     49  47  93 E7        30.02F
MINOT AFB      CLOUDY    51  48  87 E9        29.98F
GARRISON         N/A     54  48  80 SE16G22   29.96F
WILLISTON      CLOUDY    52  48  86 SE6       29.91F
DICKINSON      LGT RAIN  52  49  89 SE15      29.90F
HETTINGER      CLOUDY    52  50  93 E12       29.91F
$$

 *****  OTHER AIRPORT OBSERVATIONS IN OUR AREA  *****

CITY           SKY/WX    TMP DP  RH WIND       PRES   REMARKS
WALHALLA       CLOUDY    48  48 100 SE3       30.09F
GRAFTON AIRPOR FAIR      46  45  93 NE5       30.08F
VALLEY CITY AR CLOUDY    50  50 100 SE9       30.04F
CANDO          CLOUDY    50  45  81 SE9       30.05F
CAVALIER APRT  MOCLDY    48  45  87 CALM      30.09F
GWINNER          N/A     52  48  87 E10       30.04F
SHEYENNE NWR     N/A     50  47  89 SE7       29.95
ROLLA          CLOUDY    48  45  87 SE9       30.06F
 ***** THE ABOVE OBSERVATIONS ARE NON NWS ARE NOT QUALITY
       CONTROLLED AND MAY MIS-REPORT RAIN FOR SNOW...
$$

  *****  WEATHER ACROSS NORTHERN MINNESOTA  *****

CITY           SKY/WX    TMP DP  RH WIND       PRES   REMARKS
FLAG ISLAND    CLOUDY    48  43  81 SE8       30.13F
WARROAD        CLEAR     45  41  87 SE9       30.15S
ROSEAU         CLEAR     46  43  87 SE8       30.13S
HALLOCK        CLEAR     48  45  87 E9        30.09F
THF RVR FALLS  CLEAR     46  43  87 E9        30.10F
BAUDETTE       CLEAR     41  39  93 E8        30.16F
WASKISH        CLEAR     43  39  87 CALM      30.15S
CROOKSTON      CLEAR     50  46  87 E9        30.09F
STEPHEN NDAWN    N/A     46  45  93 SE6         N/A
GREENBUSH NDAW   N/A     46  45  93 E6          N/A
$$
  *****  WEATHER ACROSS CENTRAL AND WEST MINNESOTA  *****

CITY           SKY/WX    TMP DP  RH WIND       PRES   REMARKS
FOSSTON        CLEAR     41  39  93 CALM      30.12S
BEMIDJI        PTCLDY    46  42  86 SE8       30.12F
PARK RAPIDS    CLOUDY    48  42  80 SE12      30.12F
ELBOW LAKE     CLOUDY    50  46  86 E10       30.07F
WADENA         CLOUDY    48  43  81 E8        30.11S
DETROIT LAKES  CLEAR     46  43  87 SE7       30.10F
MOORHEAD       NOT AVBL
FERGUS FALLS   PTCLDY    50  43  76 SE9       30.08F
MORRIS MN      CLEAR     48  45  87 E7        30.07S
STAPLES        MOCLDY    46  43  87 E5        30.12F
$$
  *****  WEATHER ELSEWHERE ACROSS MINNESOTA  *****

CITY           SKY/WX    TMP DP  RH WIND       PRES   REMARKS
DULUTH         CLOUDY    44  39  82 E9        30.18S
INTRNTL FALLS  CLOUDY    43  40  89 SE5       30.19S
ELY            CLOUDY    45  37  76 NE5       30.20S
CLOQUET        CLOUDY    43  39  87 E7        30.17F
WHEATON        CLEAR     46  43  87 E6        30.08F
BRAINERD       CLEAR     43  40  89 E5        30.15F
HIBBING        CLOUDY    46  41  82 S7        30.18S
ALEXANDRIA     CLEAR     47  43  86 E13       30.10F
SAINT CLOUD    CLEAR     46  40  79 NE8       30.12F
MINNEAPOLIS    CLEAR     49  42  77 NE10      30.11S
$$

  *****  WEATHER ACROSS SOUTH DAKOTA  *****

CITY           SKY/WX    TMP DP  RH WIND       PRES   REMARKS
SIOUX FALLS    PTCLDY    58  53  84 E15       29.99S
BROOKINGS      NOT AVBL
WATERTOWN      PTCLDY    52  47  83 E12G21    30.02S
HURON          MOCLDY    58  51  78 E14G23    29.94F
SISSETON         N/A     53  48  83 SE8       30.04F
ABERDEEN       MOCLDY    55  50  83 E8        29.99F
MITCHELL       CLEAR     62  55  77 E13       29.94F
PIERRE         CLOUDY    63  55  75 E16       29.87F
MOBRIDGE       CLOUDY    56  50  80 E10       29.91F
RAPID CITY     LGT RAIN  53  52  96 E3        29.88F VSB 1/4
$$

  *****  SOME WEATHER IN NEARBY STATES *****

CITY           SKY/WX    TMP DP  RH WIND       PRES   REMARKS
GLASGOW MT     CLOUDY    50  47  89 SE18      29.80F
GREAT FALLS MT CLOUDY    58  45  62 SW16      29.70F
CHEYENNE WY    LGT RAIN  45  41  86 N15G23    29.87F
SCOTTSBLUFF NE LGT RAIN  55  55 100 NW16      29.77F
OMAHA NE       CLEAR     64  59  83 N3        29.93F
DES MOINES IA  CLEAR     69  61  75 NE12      29.98R
DAVENPORT IA   NOT AVBL
CHICAGO IL     CLOUDY    56  51  84 N17G25    30.02R
EAU CLAIRE WI  FAIR      45  39  79 NE8       30.11S
LA CROSSE WI   CLEAR     54  48  80 N8        30.08R
$$

  *****  SOME NATIONAL WEATHER *****

CITY           SKY/WX    TMP DP  RH WIND       PRES   REMARKS
LA GUARDIA NY  CLOUDY    73  60  63 SW6       29.93R
RALEIGH NC     MOCLDY    65  62  90 CALM      29.99S
ATLANTA GA     CLOUDY    68  65  90 E7        29.98F
NEW ORLEANS LA PTCLDY    77  70  79 CALM      29.89R
OKLAHOMA CITY  PTCLDY    72  57  59 SE7       29.94R
ALBUQUERQUE NM PTCLDY    67  32  27 N10G23    30.01R
SALT LAKE CITY MOCLDY    53  47  79 SE7       29.99S
LOS ANGELES CA CLEAR     69  61  75 S6        29.85S
BOISE ID       MOCLDY    56  51  84 CALM      29.94F
SEATTLE WA     CLOUDY    60  56  86 SW7       29.93R
$$

*** WEATHER ACROSS MANITOBA...SASKATCHEWAN AND ONTARIO ***
                ***ONTARIO***

CITY           SKY/WX    TMP DP  RH WIND       PRES   REMARKS
GERALDTON      CLEAR     30  30 100 NW2       30.22F
THUNDER BAY    CLOUDY    41  36  81 CALM      30.24F
SIOUX LOOKOUT  CLOUDY    39  36  87 SE5       30.20F
TORONTO        MOCLDY    64  61  88 CALM      29.88S
BIG TROUT LK   CLEAR     45  32  61 SW9       30.11S
PICKLE LAKE    NOT AVBL
DRYDEN         CLOUDY    39  37  93 SE6       30.19F
KENORA         CLOUDY    43  39  87 SE10      30.16F
$$
                *** MANITOBA***

CITY           SKY/WX    TMP DP  RH WIND       PRES   REMARKS
BRANDON        MOCLDY    41  39  93 E7        30.06F
DAUPHIN        CLOUDY    46  39  76 S13G18    30.04F
ISLAND LAKE    PTCLDY    46  39  76 S9        30.07F
PILOT MOUND      N/A     48  43  81 SE8         N/A
THE PAS        CLEAR     43  41  93 S7        29.93F
THOMPSON       CLEAR     43  41  93 S7        29.95F
WINNIPEG       MOCLDY    52  45  76 SE9       30.11F
LYNN LAKE      CLEAR     43  37  81 S7        29.84F
CHURCHILL      CLOUDY    41  41 100 NE8       29.92R
GILLAM         CLEAR     45  39  81 SW12      29.96F
$$
                ***SASKATCHEWAN***

CITY           SKY/WX    TMP DP  RH WIND       PRES   REMARKS
ESTEVAN        CLOUDY    48  45  87 SE12      29.95
KINDERSLEY     CLOUDY    52  45  76 SE15G23   29.70F
LLOYDMINSTER   MOCLDY    54  45  71 S15       29.64F
PRINCE ALBERT  MOCLDY    50  41  71 S8        29.81F
REGINA         CLOUDY    50  43  76 SE18G26   29.88F
YORKTON        CLEAR     43  39  87 SE15G21   29.95F
N. BATTLEFORD  CLEAR     50  45  81 SE15      29.74F
LA RONGE       PTCLDY    52  39  62 S10       29.79S
SASKATOON      CLOUDY    52  45  76 S16G22    29.80F
SWIFT CURRENT  MOCLDY    48  45  87 S21G28    29.74F
$$
NOTE: THESE ARE AUTOMATED STATIONS WITH LIMITED QUALITY CONTROL
      "FAIR" INDICATES FEW OR NO CLOUDS BELOW 12,000 FEET WITH NO
      SIGNIFICANT WEATHER AND/OR OBSTRUCTIONS TO VISIBILITY.
      SKY/WX - SKY CONDITION AND SIGNIFICANT WEATHER.
      TMP - AIR TEMPERATURE.    DP   - DEWPOINT TEMPERATURE.
      RH  - RELATIVE HUMIDITY.  PRES - PRESSURE.
      HX  - HEAT INDEX.         WCI  - WIND CHILL INDEX.
$


USA.gov is the U.S. government's official web portal to all federal, state and local government web resources and services.